Weather History for Kankakee, IL

Change the Weather History Date:

Friday, October 29, 2010

  Actual Average Record
Temperature  
Mean Temperature 38 °F -  
Max Temperature 51 °F 60 °F 78 °F (2004)
Min Temperature 26 °F 37 °F 22 °F (1980)
Degree Days  
Heating Degree Days 26    
Moisture  
Dew Point 27 °F    
Average Humidity 61    
Maximum Humidity 93    
Minimum Humidity 33    
Precipitation  
Precipitation 0.00 in - - ()
Sea Level Pressure  
Sea Level Pressure 30.31 in    
Wind  
Wind Speed 6 mph (WSW)    
Max Wind Speed 9 mph    
Max Gust Speed -    
Visibility 10 miles    
Events Thunderstorm    
Averages and records for this station are not official NWS values.
T = Trace of Precipitation, MM = Missing Value Source: NWS Daily Summary

Daily Weather History Graph

Daily Weather History Graph

Search for Another Location

Airport:

Trip Planner

Search our weather history database for the weather conditions in past years. The results will help you decide how hot, cold, wet, or windy it might be!

Date:

Astronomy

Oct. 29, 2010 Rise Set
Actual Time 7:18 AM CDT 5:50 PM CDT
Civil Twilight 6:50 AM CDT 6:19 PM CDT
Nautical Twilight 6:18 AM CDT 6:51 PM CDT
Astronomical Twilight 5:46 AM CDT 7:23 PM CDT
Moon 11:31 PM CDT (10/29) 1:20 PM CDT (10/29)
Length of Visible Light 11h 28m
Length of Day
10h 32m
Waning Gibbous, 59% of the Moon is Illuminated
Oct 29
Waning Gibbous
Oct 30
Last Quarter
Nov 5
New
Nov 13
First Quarter
Nov 21
Full

Hourly Weather History & Observations

Time (CDT) Temp. Windchill Dew Point Humidity Pressure Visibility Wind Dir Wind Speed Gust Speed Precip Events Conditions
12:04 AM 39.2 °F 33.0 °F 28.4 °F 65% 30.32 in 10.0 mi WNW 9.2 mph - N/A   Overcast
12:24 AM 39.2 °F 34.2 °F 28.4 °F 65% 30.33 in 10.0 mi NNW 6.9 mph - N/A   Overcast
12:44 AM 39.2 °F 35.0 °F 28.4 °F 65% 30.33 in 10.0 mi NW 5.8 mph - N/A   Overcast
1:04 AM 39.2 °F 35.9 °F 28.4 °F 65% 30.33 in 10.0 mi NW 4.6 mph - N/A   Overcast
1:41 AM 37.4 °F 30.8 °F 26.6 °F 65% 30.33 in 10.0 mi WNW 9.2 mph - N/A Thunderstorm Thunderstorm
1:44 AM 37.4 °F 31.4 °F 26.6 °F 65% 30.33 in 10.0 mi WNW 8.1 mph - N/A Thunderstorm Thunderstorm
2:04 AM 37.4 °F 32.1 °F 26.6 °F 65% 30.34 in 10.0 mi WNW 6.9 mph - N/A Thunderstorm Thunderstorm
2:24 AM 37.4 °F 34.9 °F 26.6 °F 65% 30.34 in 10.0 mi NW 3.5 mph - N/A   Overcast
2:44 AM 37.4 °F 32.1 °F 26.6 °F 65% 30.35 in 10.0 mi WNW 6.9 mph - N/A   Overcast
3:04 AM 37.4 °F 30.8 °F 26.6 °F 65% 30.35 in 10.0 mi NW 9.2 mph - N/A   Overcast
3:24 AM 35.6 °F 29.2 °F 26.6 °F 70% 30.35 in 10.0 mi North 8.1 mph - N/A   Overcast
3:44 AM 35.6 °F 30.7 °F 26.6 °F 70% 30.35 in 10.0 mi NNW 5.8 mph - N/A   Overcast
4:04 AM 35.6 °F 29.9 °F 26.6 °F 70% 30.35 in 10.0 mi NNW 6.9 mph - N/A   Overcast
4:41 AM 35.6 °F 31.7 °F 26.6 °F 70% 30.37 in 10.0 mi NW 4.6 mph - N/A   Overcast
5:01 AM 33.8 °F 29.6 °F 26.6 °F 75% 30.37 in 10.0 mi WNW 4.6 mph - N/A   Overcast
5:04 AM 33.8 °F 30.8 °F 26.6 °F 75% 30.37 in 10.0 mi WNW 3.5 mph - N/A   Overcast
5:24 AM 33.8 °F 30.8 °F 26.6 °F 75% 30.37 in 10.0 mi WNW 3.5 mph - N/A   Mostly Cloudy
5:44 AM 33.8 °F - 26.6 °F 75% 30.37 in 10.0 mi Calm Calm - N/A   Scattered Clouds
6:04 AM 32.0 °F - 26.6 °F 80% 30.37 in 10.0 mi Calm Calm - N/A   Clear
6:24 AM 30.2 °F 25.4 °F 26.6 °F 86% 30.37 in 10.0 mi West 4.6 mph - N/A   Clear
6:44 AM 28.4 °F 22.2 °F 26.6 °F 93% 30.38 in 10.0 mi West 5.8 mph - N/A   Clear
7:04 AM 28.4 °F 24.6 °F 24.8 °F 86% 30.38 in 10.0 mi West 3.5 mph - N/A   Clear
7:24 AM 26.6 °F 22.6 °F 24.8 °F 93% 30.38 in 10.0 mi West 3.5 mph - N/A   Clear
7:44 AM 28.4 °F 24.6 °F 24.8 °F 86% 30.38 in 10.0 mi WSW 3.5 mph - N/A   Clear
8:04 AM 28.4 °F 23.3 °F 26.6 °F 93% 30.39 in 10.0 mi WSW 4.6 mph - N/A   Clear
8:24 AM 30.2 °F 26.7 °F 26.6 °F 86% 30.39 in 10.0 mi West 3.5 mph - N/A   Clear
8:44 AM 32.0 °F 26.4 °F 28.4 °F 87% 30.40 in 10.0 mi West 5.8 mph - N/A   Clear
9:04 AM 33.8 °F 29.6 °F 28.4 °F 81% 30.40 in 10.0 mi West 4.6 mph - N/A   Clear
9:24 AM 35.6 °F 31.7 °F 28.4 °F 75% 30.40 in 10.0 mi West 4.6 mph - N/A   Clear
9:44 AM 37.4 °F 34.9 °F 28.4 °F 70% 30.40 in 10.0 mi West 3.5 mph - N/A   Clear
10:04 AM 39.2 °F 35.9 °F 28.4 °F 65% 30.39 in 10.0 mi WSW 4.6 mph - N/A   Clear
10:24 AM 39.2 °F 37.0 °F 28.4 °F 65% 30.39 in 10.0 mi WSW 3.5 mph - N/A   Clear
10:44 AM 41.0 °F 39.0 °F 28.4 °F 61% 30.38 in 10.0 mi WSW 3.5 mph - N/A   Clear
11:04 AM 42.8 °F 40.1 °F 28.4 °F 57% 30.38 in 10.0 mi SSW 4.6 mph - N/A   Clear
11:24 AM 42.8 °F 41.1 °F 28.4 °F 57% 30.38 in 10.0 mi SW 3.5 mph - N/A   Clear
11:44 AM 44.6 °F - 28.4 °F 53% 30.37 in 10.0 mi Calm Calm - N/A   Clear
12:04 PM 44.6 °F 42.2 °F 26.6 °F 49% 30.36 in 10.0 mi WSW 4.6 mph - N/A   Clear
12:24 PM 46.4 °F 42.4 °F 28.4 °F 50% 30.35 in 10.0 mi WSW 8.1 mph - N/A   Clear
12:44 PM 46.4 °F 42.4 °F 28.4 °F 50% 30.35 in 10.0 mi West 8.1 mph - N/A   Clear
1:04 PM 48.2 °F - 28.4 °F 46% 30.34 in 10.0 mi WSW 5.8 mph - N/A   Clear
1:24 PM 48.2 °F - 26.6 °F 43% 30.32 in 10.0 mi WSW 6.9 mph - N/A   Clear
1:44 PM 48.2 °F - 24.8 °F 40% 30.31 in 10.0 mi West 9.2 mph - N/A   Clear
2:04 PM 50.0 °F - 26.6 °F 40% 30.30 in 10.0 mi WSW 5.8 mph - N/A   Clear
2:24 PM 50.0 °F - 26.6 °F 40% 30.29 in 10.0 mi WSW 8.1 mph - N/A   Clear
2:44 PM 51.8 °F - 24.8 °F 35% 30.28 in 10.0 mi SW 6.9 mph - N/A   Clear
3:04 PM 50.0 °F - 24.8 °F 37% 30.27 in 10.0 mi WSW 9.2 mph - N/A   Clear
3:24 PM 51.8 °F - 24.8 °F 35% 30.26 in 10.0 mi SW 5.8 mph - N/A   Clear
3:44 PM 51.8 °F - 24.8 °F 35% 30.26 in 10.0 mi WSW 8.1 mph - N/A   Clear
4:04 PM 51.8 °F - 23.0 °F 33% 30.25 in 10.0 mi WSW 6.9 mph - N/A   Clear
4:24 PM 50.0 °F - 24.8 °F 37% 30.25 in 10.0 mi SW 6.9 mph - N/A   Clear
4:44 PM 51.8 °F - 24.8 °F 35% 30.24 in 10.0 mi SW 6.9 mph - N/A   Clear
5:04 PM 51.8 °F - 23.0 °F 33% 30.23 in 10.0 mi SW 8.1 mph - N/A   Clear
5:24 PM 50.0 °F - 24.8 °F 37% 30.23 in 10.0 mi SW 6.9 mph - N/A   Clear
5:44 PM 46.4 °F 43.5 °F 24.8 °F 43% 30.22 in 10.0 mi SSW 5.8 mph - N/A   Clear
6:04 PM 44.6 °F 42.2 °F 24.8 °F 46% 30.22 in 10.0 mi SSW 4.6 mph - N/A   Clear
6:24 PM 44.6 °F 43.1 °F 24.8 °F 46% 30.22 in 10.0 mi SSW 3.5 mph - N/A   Clear
6:44 PM 44.6 °F 41.4 °F 24.8 °F 46% 30.21 in 10.0 mi South 5.8 mph - N/A   Clear
7:04 PM 39.2 °F 35.0 °F 24.8 °F 56% 30.21 in 10.0 mi South 5.8 mph - N/A   Clear
7:24 PM 42.8 °F 39.3 °F 26.6 °F 53% 30.22 in 10.0 mi South 5.8 mph - N/A   Clear
7:44 PM 39.2 °F 35.0 °F 26.6 °F 61% 30.22 in 10.0 mi SSW 5.8 mph - N/A   Clear
8:04 PM 39.2 °F 34.2 °F 26.6 °F 61% 30.21 in 10.0 mi South 6.9 mph - N/A   Clear
8:24 PM 39.2 °F 35.0 °F 26.6 °F 61% 30.20 in 10.0 mi SSW 5.8 mph - N/A   Clear
8:44 PM 39.2 °F 35.0 °F 26.6 °F 61% 30.20 in 10.0 mi SW 5.8 mph - N/A   Clear
9:04 PM 39.2 °F 35.0 °F 26.6 °F 61% 30.18 in 10.0 mi South 5.8 mph - N/A   Clear
9:24 PM 39.2 °F 34.2 °F 26.6 °F 61% 30.18 in 10.0 mi SSW 6.9 mph - N/A   Clear
9:44 PM 37.4 °F 32.1 °F 26.6 °F 65% 30.17 in 10.0 mi South 6.9 mph - N/A   Clear
10:04 PM 39.2 °F 37.0 °F 26.6 °F 61% 30.16 in 10.0 mi South 3.5 mph - N/A   Clear
10:24 PM 39.2 °F 34.2 °F 26.6 °F 61% 30.15 in 10.0 mi South 6.9 mph - N/A   Clear
10:44 PM 39.2 °F 32.5 °F 26.6 °F 61% 30.13 in 10.0 mi South 10.4 mph - N/A   Clear
11:21 PM 39.2 °F 33.0 °F 26.6 °F 61% 30.12 in 10.0 mi South 9.2 mph - N/A   Clear
11:41 PM 39.2 °F 33.0 °F 26.6 °F 61% 30.11 in 10.0 mi South 9.2 mph - N/A   Clear